CJT16T WADL-RJAH

Flight info

Callsign CJT16T
Flight time N/A
Altitude 33000
Route TOKUL DCT BLI G578 ZAM/N0471F350 G578 GURAG A590 MDE/N0459F370 A590 BUBDO Y83 MOE/N0453F380 V18 XAC Y588 KOGAR Y808 COLOR
Aircraft B763/H-SDE3FGHIM3RWXY/LB1

Departure

Time N/A
Airport Lombok International Airport (WADL)

Arrival

Time 2026-04-21 05:52
Airport Ibaraki Airport (RJAH)
Time Latitude Longitude Altitude Speed Heading
2026-04-21 04:07 28.34438 133.58217 35011 ft 502 kts 36°
2026-04-21 04:07 28.37127 133.60812 35014 ft 502 kts 36°
2026-04-21 04:08 28.42463 133.65967 35005 ft 502 kts 36°
2026-04-21 04:08 28.47813 133.71143 34995 ft 502 kts 36°
2026-04-21 04:09 28.53117 133.76282 34999 ft 502 kts 36°
2026-04-21 04:09 28.58450 133.81455 34998 ft 503 kts 36°
2026-04-21 04:10 28.63806 133.86659 34999 ft 503 kts 36°
2026-04-21 04:10 28.69117 133.91829 34999 ft 500 kts 36°
2026-04-21 04:11 28.74426 133.97002 34995 ft 501 kts 36°
2026-04-21 04:11 28.79755 134.02202 34996 ft 503 kts 36°
2026-04-21 04:12 28.85102 134.07430 34988 ft 502 kts 36°
2026-04-21 04:12 28.90412 134.12624 34998 ft 502 kts 36°
2026-04-21 04:13 28.95741 134.17847 34997 ft 503 kts 36°
2026-04-21 04:13 29.01021 134.23029 35006 ft 503 kts 36°
2026-04-21 04:14 29.06338 134.28253 35009 ft 503 kts 36°
2026-04-21 04:14 29.11622 134.33453 35004 ft 504 kts 36°
2026-04-21 04:15 29.16936 134.38690 35002 ft 504 kts 35°
2026-04-21 04:15 29.22264 134.43948 35001 ft 505 kts 36°
2026-04-21 04:16 29.27560 134.49182 35009 ft 506 kts 35°
2026-04-21 04:16 29.32888 134.54456 35011 ft 505 kts 35°
2026-04-21 04:17 29.38188 134.59712 35006 ft 504 kts 35°
2026-04-21 04:17 29.43461 134.64944 35007 ft 503 kts 35°
2026-04-21 04:18 29.48776 134.70226 34995 ft 504 kts 36°
2026-04-21 04:18 29.54062 134.75488 34994 ft 507 kts 36°
2026-04-21 04:19 29.59391 134.80801 34992 ft 505 kts 36°
2026-04-21 04:19 29.64674 134.86073 34992 ft 505 kts 36°
2026-04-21 04:20 29.69991 134.91391 34988 ft 507 kts 36°
2026-04-21 04:20 29.75303 134.96707 34990 ft 505 kts 35°
2026-04-21 04:21 29.80607 135.02026 34987 ft 504 kts 35°
2026-04-21 04:21 29.85942 135.07382 34983 ft 506 kts 35°
2026-04-21 04:22 29.91256 135.12726 34979 ft 505 kts 35°
2026-04-21 04:22 29.96549 135.18056 34977 ft 508 kts 36°
2026-04-21 04:23 30.01916 135.23471 34968 ft 508 kts 35°
2026-04-21 04:23 30.07225 135.28833 34969 ft 506 kts 35°
2026-04-21 04:24 30.12558 135.34222 34971 ft 508 kts 34°
2026-04-21 04:24 30.17960 135.39555 34979 ft 507 kts 34°
2026-04-21 04:25 30.23336 135.44865 34970 ft 507 kts 34°
2026-04-21 04:25 30.28727 135.50197 34975 ft 509 kts 34°
2026-04-21 04:26 30.34128 135.55547 34981 ft 511 kts 34°
2026-04-21 04:26 30.39536 135.60913 34976 ft 507 kts 34°
2026-04-21 04:27 30.44932 135.66273 34967 ft 510 kts 34°
2026-04-21 04:27 30.50326 135.71642 34961 ft 512 kts 34°
2026-04-21 04:28 30.55755 135.77051 34960 ft 511 kts 34°
2026-04-21 04:28 30.61140 135.82426 34960 ft 510 kts 34°
2026-04-21 04:29 30.66554 135.87839 34964 ft 512 kts 34°
2026-04-21 04:29 30.71946 135.93237 34964 ft 510 kts 34°
2026-04-21 04:30 30.77370 135.98675 34967 ft 513 kts 34°
2026-04-21 04:30 30.82766 136.04094 34965 ft 512 kts 34°
2026-04-21 04:31 30.88172 136.09534 34969 ft 512 kts 33°
2026-04-21 04:31 30.93533 136.14932 34971 ft 513 kts 33°
2026-04-21 04:32 30.98952 136.20399 34968 ft 514 kts 33°
2026-04-21 04:32 31.04340 136.25844 34979 ft 514 kts 33°
2026-04-21 04:33 31.09729 136.31299 34977 ft 514 kts 33°
2026-04-21 04:33 31.15101 136.36745 34968 ft 512 kts 33°
2026-04-21 04:34 31.20504 136.42229 34970 ft 513 kts 33°
2026-04-21 04:34 31.25866 136.47682 34968 ft 512 kts 33°
2026-04-21 04:35 31.31218 136.53133 34968 ft 513 kts 33°
2026-04-21 04:35 31.36626 136.58649 34970 ft 513 kts 33°
2026-04-21 04:36 31.41971 136.64110 34971 ft 512 kts 33°
2026-04-21 04:36 31.47356 136.69630 34961 ft 515 kts 33°
2026-04-21 04:37 31.52716 136.75137 34955 ft 514 kts 33°
2026-04-21 04:37 31.58083 136.80659 34958 ft 516 kts 33°
2026-04-21 04:38 31.63456 136.86200 34954 ft 514 kts 33°
2026-04-21 04:38 31.68844 136.91762 34954 ft 515 kts 33°
2026-04-21 04:39 31.74227 136.97327 34955 ft 515 kts 33°
2026-04-21 04:39 31.79592 137.02882 34962 ft 515 kts 33°
2026-04-21 04:40 31.84983 137.08476 34963 ft 515 kts 33°
2026-04-21 04:40 31.90323 137.14026 34963 ft 515 kts 33°
2026-04-21 04:41 31.95691 137.19611 34962 ft 516 kts 33°
2026-04-21 04:41 32.01063 137.25211 34954 ft 516 kts 33°
2026-04-21 04:42 32.06444 137.30829 34954 ft 518 kts 33°
2026-04-21 04:42 32.11832 137.36464 34958 ft 516 kts 33°
2026-04-21 04:43 32.17200 137.42087 34960 ft 517 kts 33°
2026-04-21 04:43 32.22612 137.47766 34957 ft 517 kts 33°
2026-04-21 04:44 32.27967 137.53394 34957 ft 519 kts 33°
2026-04-21 04:44 32.33365 137.59078 34959 ft 518 kts 33°
2026-04-21 04:45 32.38765 137.64772 34960 ft 517 kts 33°
2026-04-21 04:45 32.44142 137.70450 34945 ft 520 kts 33°
2026-04-21 04:46 32.49574 137.76198 34943 ft 520 kts 33°
2026-04-21 04:46 32.54945 137.81891 34949 ft 518 kts 33°
2026-04-21 04:47 32.60364 137.87642 34944 ft 522 kts 33°
2026-04-21 04:47 32.65758 137.93379 34944 ft 522 kts 33°
2026-04-21 04:48 32.71178 137.99152 34947 ft 524 kts 33°
2026-04-21 04:48 32.76591 138.04930 34950 ft 519 kts 33°
2026-04-21 04:49 32.81956 138.10663 34953 ft 521 kts 33°
2026-04-21 04:49 32.87374 138.16466 34943 ft 524 kts 33°
2026-04-21 04:50 32.92675 138.22507 34941 ft 523 kts 35°
2026-04-21 04:50 32.97901 138.28500 34947 ft 526 kts 35°
2026-04-21 04:51 33.03213 138.34602 34940 ft 527 kts 35°
2026-04-21 04:51 33.08472 138.40657 34948 ft 522 kts 35°
2026-04-21 04:52 33.13701 138.46678 34946 ft 523 kts 35°
2026-04-21 04:52 33.18911 138.52693 34939 ft 524 kts 36°
2026-04-21 04:53 33.24159 138.58762 34937 ft 524 kts 36°
2026-04-21 04:53 33.29390 138.64822 34935 ft 522 kts 36°
2026-04-21 04:54 33.34601 138.70871 34936 ft 523 kts 36°
2026-04-21 04:54 33.39852 138.76975 34923 ft 525 kts 36°
2026-04-21 04:55 33.45087 138.83072 34909 ft 522 kts 36°
2026-04-21 04:55 33.50267 138.89114 34907 ft 523 kts 36°
2026-04-21 04:56 33.55485 138.95212 34907 ft 523 kts 36°
2026-04-21 04:56 33.60719 139.01341 34882 ft 525 kts 36°
2026-04-21 04:57 33.65913 139.07433 34885 ft 521 kts 36°
2026-04-21 04:57 33.71079 139.13498 34891 ft 520 kts 36°
2026-04-21 04:58 33.76281 139.19617 34879 ft 523 kts 36°
2026-04-21 04:58 33.81473 139.25734 34878 ft 524 kts 36°
2026-04-21 04:59 33.86653 139.31853 34873 ft 520 kts 36°
2026-04-21 04:59 33.91598 139.37701 34879 ft 522 kts 36°
2026-04-21 05:00 33.96372 139.43358 34872 ft 522 kts 37°
2026-04-21 05:00 34.04892 139.50829 34880 ft 491 kts 12°
2026-04-21 05:01 34.08038 139.52205 34881 ft 480 kts
2026-04-21 05:01 34.11270 139.53040 34878 ft 468 kts 355°
2026-04-21 05:01 34.14497 139.53241 34884 ft 455 kts 346°
2026-04-21 05:01 34.17639 139.52977 34879 ft 448 kts 342°
2026-04-21 05:02 34.23800 139.52148 34880 ft 438 kts 339°
2026-04-21 05:02 34.29775 139.50885 34868 ft 436 kts 338°
2026-04-21 05:03 34.35783 139.49550 34876 ft 442 kts 338°
2026-04-21 05:03 34.41812 139.48184 34875 ft 440 kts 338°
2026-04-21 05:04 34.47819 139.46809 34877 ft 439 kts 338°
2026-04-21 05:04 34.53835 139.45425 34865 ft 440 kts 338°
2026-04-21 05:05 34.56817 139.44746 34854 ft 426 kts 338°
2026-04-21 05:05 34.59676 139.44093 34833 ft 412 kts 337°
2026-04-21 05:05 34.65187 139.42815 34869 ft 401 kts 337°
2026-04-21 05:06 34.70826 139.41884 34878 ft 428 kts 348°
2026-04-21 05:06 34.73885 139.42207 34874 ft 449 kts 359°
2026-04-21 05:06 34.76973 139.43112 34877 ft 465 kts
2026-04-21 05:07 34.83315 139.45192 34863 ft 476 kts
2026-04-21 05:07 34.89787 139.47272 34864 ft 488 kts
2026-04-21 05:08 34.96388 139.49387 34845 ft 490 kts
2026-04-21 05:08 35.02983 139.51495 34858 ft 492 kts
2026-04-21 05:09 35.09594 139.53616 34859 ft 485 kts
2026-04-21 05:09 35.16129 139.55704 34859 ft 491 kts
2026-04-21 05:10 35.22743 139.57742 34840 ft 482 kts 358°
2026-04-21 05:10 35.26007 139.58164 34861 ft 463 kts 348°
2026-04-21 05:10 35.29194 139.57976 34869 ft 455 kts 342°
2026-04-21 05:11 35.35506 139.57150 34852 ft 454 kts 341°
2026-04-21 05:11 35.41843 139.56242 34863 ft 456 kts 340°
2026-04-21 05:12 35.48102 139.55315 34846 ft 451 kts 340°
2026-04-21 05:12 35.54365 139.54417 34852 ft 460 kts 345°
2026-04-21 05:13 35.57643 139.54494 34870 ft 476 kts 353°
2026-04-21 05:13 35.60925 139.54973 34861 ft 480 kts 354°
2026-04-21 05:13 35.67585 139.55972 34858 ft 477 kts 354°
2026-04-21 05:14 35.74122 139.56970 34863 ft 470 kts 354°
2026-04-21 05:14 35.80633 139.57959 34871 ft 474 kts 354°
2026-04-21 05:15 35.87268 139.58971 34866 ft 481 kts 354°
2026-04-21 05:15 35.93857 139.60710 34875 ft 496 kts
2026-04-21 05:16 35.97032 139.62482 34872 ft 512 kts 18°
2026-04-21 05:16 36.00092 139.64905 34869 ft 529 kts 27°
2026-04-21 05:16 36.02911 139.67908 34863 ft 544 kts 37°
2026-04-21 05:16 36.05421 139.71442 34843 ft 553 kts 46°
2026-04-21 05:17 36.09220 139.79765 34860 ft 567 kts 65°
2026-04-21 05:17 36.11134 139.89296 34854 ft 576 kts 84°
2026-04-21 05:18 36.10947 139.99059 34853 ft 566 kts 103°
2026-04-21 05:18 36.08704 140.08208 34858 ft 554 kts 122°
2026-04-21 05:19 36.06866 140.12357 34856 ft 543 kts 131°
2026-04-21 05:19 36.04824 140.16222 34850 ft 540 kts 127°
2026-04-21 05:19 36.02027 140.24695 34839 ft 528 kts 108°
2026-04-21 05:20 36.01424 140.29115 34846 ft 523 kts 97°
2026-04-21 05:20 36.01354 140.33638 34868 ft 528 kts 87°
2026-04-21 05:20 36.02801 140.42554 34871 ft 537 kts 66°
2026-04-21 05:21 36.06235 140.50642 34870 ft 528 kts 46°
2026-04-21 05:21 36.08538 140.54039 34866 ft 517 kts 37°
2026-04-21 05:21 36.11188 140.56953 34879 ft 504 kts 27°
2026-04-21 05:22 36.14113 140.59308 34869 ft 491 kts 16°
2026-04-21 05:22 36.17137 140.60997 34894 ft 474 kts
2026-04-21 05:22 36.20277 140.62064 34897 ft 458 kts 355°
2026-04-21 05:22 36.23351 140.62470 34908 ft 437 kts 346°
2026-04-21 05:23 36.26338 140.62233 34971 ft 419 kts 336°
2026-04-21 05:23 36.29167 140.61580 35014 ft 417 kts 334°
2026-04-21 05:23 36.34866 140.60219 35071 ft 415 kts 334°
2026-04-21 05:24 36.40513 140.58872 35130 ft 411 kts 334°
2026-04-21 05:24 36.46161 140.57516 35206 ft 414 kts 335°
2026-04-21 05:25 36.49069 140.57103 35233 ft 430 kts 343°
2026-04-21 05:25 36.52108 140.57295 35285 ft 448 kts 354°
2026-04-21 05:25 36.58364 140.58391 35176 ft 456 kts 352°
2026-04-21 05:26 36.61546 140.58678 33973 ft 463 kts 346°
2026-04-21 05:26 36.64705 140.58386 32814 ft 445 kts 336°
2026-04-21 05:26 36.67665 140.57571 31742 ft 432 kts 331°
2026-04-21 05:26 36.70517 140.56540 30646 ft 424 kts 327°
2026-04-21 05:27 36.73063 140.55222 29599 ft 405 kts 318°
2026-04-21 05:27 36.75351 140.53384 28530 ft 385 kts 309°
2026-04-21 05:27 36.77228 140.51147 27444 ft 367 kts 298°
2026-04-21 05:27 36.78640 140.48598 26361 ft 351 kts 290°
2026-04-21 05:28 36.79536 140.45889 25294 ft 338 kts 278°
2026-04-21 05:28 36.79921 140.43051 24215 ft 328 kts 269°
2026-04-21 05:28 36.79778 140.40297 23183 ft 322 kts 259°
2026-04-21 05:28 36.79118 140.37653 22210 ft 322 kts 249°
2026-04-21 05:29 36.77975 140.35272 21249 ft 326 kts 238°
2026-04-21 05:29 36.76397 140.33260 20328 ft 332 kts 226°
2026-04-21 05:29 36.74422 140.31740 19848 ft 328 kts 218°
2026-04-21 05:29 36.72422 140.30534 19468 ft 313 kts 217°
2026-04-21 05:30 36.70515 140.29388 19066 ft 299 kts 217°
2026-04-21 05:30 36.68660 140.28296 18671 ft 288 kts 217°
2026-04-21 05:30 36.66880 140.27267 18292 ft 278 kts 217°
2026-04-21 05:30 36.65143 140.26288 17878 ft 271 kts 218°
2026-04-21 05:31 36.63429 140.25328 17422 ft 266 kts 216°
2026-04-21 05:31 36.61749 140.24383 16975 ft 261 kts 217°
2026-04-21 05:31 36.60120 140.23442 16513 ft 256 kts 217°
2026-04-21 05:31 36.58524 140.22511 16042 ft 254 kts 218°
2026-04-21 05:32 36.56916 140.21580 15564 ft 252 kts 217°
2026-04-21 05:32 36.55329 140.20651 15104 ft 250 kts 217°
2026-04-21 05:32 36.53774 140.19713 14645 ft 248 kts 218°
2026-04-21 05:32 36.52231 140.18762 14179 ft 247 kts 218°
2026-04-21 05:33 36.50713 140.17810 13700 ft 246 kts 218°
2026-04-21 05:33 36.49144 140.16885 13202 ft 251 kts 208°
2026-04-21 05:33 36.47416 140.16354 12733 ft 258 kts 202°
2026-04-21 05:33 36.45666 140.15932 12258 ft 258 kts 201°
2026-04-21 05:34 36.43887 140.15492 11780 ft 258 kts 201°
2026-04-21 05:34 36.42126 140.15045 11305 ft 258 kts 201°
2026-04-21 05:34 36.40356 140.14594 10846 ft 258 kts 202°
2026-04-21 05:34 36.38567 140.14328 10467 ft 261 kts 192°
2026-04-21 05:35 36.36785 140.14070 10112 ft 253 kts 199°
2026-04-21 05:35 36.35074 140.13707 9743 ft 249 kts 199°
2026-04-21 05:35 36.33361 140.13330 9365 ft 247 kts 199°
2026-04-21 05:35 36.31667 140.12953 8988 ft 245 kts 200°
2026-04-21 05:36 36.30000 140.12566 8623 ft 242 kts 200°
2026-04-21 05:36 36.28345 140.12175 8250 ft 240 kts 200°
2026-04-21 05:36 36.26722 140.11781 7890 ft 239 kts 199°
2026-04-21 05:36 36.25096 140.11366 7508 ft 236 kts 199°
2026-04-21 05:37 36.23494 140.10948 7129 ft 235 kts 199°
2026-04-21 05:37 36.21903 140.10513 6798 ft 231 kts 200°
2026-04-21 05:37 36.20351 140.10094 6544 ft 219 kts 199°
2026-04-21 05:37 36.18897 140.09695 6158 ft 211 kts 200°
2026-04-21 05:38 36.17481 140.09314 5775 ft 203 kts 200°
2026-04-21 05:38 36.16101 140.08929 5386 ft 198 kts 200°
2026-04-21 05:38 36.14784 140.08553 5015 ft 194 kts 199°
2026-04-21 05:38 36.13486 140.08179 4685 ft 189 kts 200°
2026-04-21 05:39 36.12213 140.07812 4343 ft 185 kts 200°
2026-04-21 05:39 36.10957 140.07455 4004 ft 182 kts 197°
2026-04-21 05:39 36.09698 140.07320 3680 ft 184 kts 188°
2026-04-21 05:39 36.08409 140.07260 3359 ft 182 kts 187°
2026-04-21 05:40 36.07175 140.07573 3031 ft 185 kts 149°
2026-04-21 05:40 36.06138 140.08427 2987 ft 175 kts 146°
2026-04-21 05:40 36.05116 140.09317 2913 ft 183 kts 146°
2026-04-21 05:40 36.04057 140.10239 2798 ft 183 kts 146°
2026-04-21 05:41 36.03019 140.11128 2676 ft 181 kts 146°
2026-04-21 05:41 36.01988 140.12015 2552 ft 180 kts 146°
2026-04-21 05:41 36.00946 140.12913 2436 ft 181 kts 146°
2026-04-21 05:41 35.99904 140.13811 2262 ft 184 kts 146°
2026-04-21 05:42 35.98840 140.14705 2032 ft 183 kts 144°
2026-04-21 05:42 35.97914 140.15749 1799 ft 178 kts 130°
2026-04-21 05:42 35.97080 140.16869 1571 ft 176 kts 131°
2026-04-21 05:42 35.96271 140.17952 1475 ft 169 kts 130°
2026-04-21 05:43 35.95458 140.19055 1526 ft 175 kts 130°
2026-04-21 05:43 35.94633 140.20174 1515 ft 178 kts 129°
2026-04-21 05:43 35.93814 140.21297 1493 ft 174 kts 130°
2026-04-21 05:43 35.93151 140.22523 1494 ft 167 kts 99°
2026-04-21 05:44 35.92928 140.23900 1529 ft 166 kts 93°
2026-04-21 05:44 35.92779 140.25323 1497 ft 167 kts 91°
2026-04-21 05:44 35.92651 140.26747 1499 ft 163 kts 90°
2026-04-21 05:44 35.92607 140.28146 1500 ft 159 kts 69°
2026-04-21 05:45 35.92965 140.29430 1541 ft 157 kts 62°
2026-04-21 05:45 35.93518 140.30536 1485 ft 147 kts 29°
2026-04-21 05:45 35.94423 140.31021 1528 ft 142 kts 15°
2026-04-21 05:45 35.95355 140.31447 1534 ft 141 kts 17°
2026-04-21 05:46 35.96272 140.31874 1478 ft 138 kts 16°
2026-04-21 05:46 35.97161 140.32281 1502 ft 137 kts 16°
2026-04-21 05:46 35.98088 140.32700 1509 ft 142 kts 14°
2026-04-21 05:46 35.99020 140.33119 1501 ft 142 kts 16°
2026-04-21 05:47 35.99930 140.33528 1464 ft 135 kts 14°
2026-04-21 05:47 36.00815 140.33922 1499 ft 133 kts 14°
2026-04-21 05:47 36.01701 140.34314 1522 ft 138 kts 15°
2026-04-21 05:47 36.02616 140.34718 1491 ft 138 kts 15°
2026-04-21 05:48 36.03510 140.35113 1502 ft 133 kts 14°
2026-04-21 05:48 36.04393 140.35504 1512 ft 134 kts 16°
2026-04-21 05:48 36.05262 140.35887 1524 ft 132 kts 15°
2026-04-21 05:48 36.06152 140.36278 1530 ft 138 kts 15°
2026-04-21 05:49 36.07041 140.36668 1498 ft 133 kts 15°
2026-04-21 05:49 36.07922 140.37058 1491 ft 133 kts 14°
2026-04-21 05:49 36.08803 140.37445 1521 ft 137 kts 14°
2026-04-21 05:49 36.09706 140.37842 1477 ft 135 kts 17°
2026-04-21 05:50 36.10600 140.38234 1286 ft 138 kts 17°
2026-04-21 05:50 36.11493 140.38631 1126 ft 135 kts 18°
2026-04-21 05:50 36.12371 140.39020 953 ft 134 kts 15°
2026-04-21 05:50 36.13261 140.39409 824 ft 133 kts 19°
2026-04-21 05:51 36.14136 140.39795 659 ft 133 kts 20°
2026-04-21 05:51 36.15019 140.40186 516 ft 138 kts 17°
2026-04-21 05:51 36.15935 140.40587 351 ft 137 kts 21°
2026-04-21 05:51 36.16832 140.40985 191 ft 138 kts 19°
2026-04-21 05:52 36.17729 140.41397 129 ft 139 kts 17°
2026-04-21 05:52 36.18533 140.41740 115 ft 83 kts 19°
2026-04-21 05:52 36.18867 140.41896 115 ft 27 kts 22°
2026-04-21 05:52 36.18974 140.42001 115 ft 15 kts 89°
2026-04-21 05:53 36.18945 140.42129 115 ft 13 kts 112°
2026-04-21 05:53 36.18886 140.42174 115 ft 5 kts 182°
2026-04-21 05:53 36.18863 140.42169 115 ft 6 kts 191°
2026-04-21 05:53 36.18795 140.42146 115 ft 14 kts 198°
2026-04-21 05:54 36.18676 140.42093 115 ft 22 kts 199°
2026-04-21 05:54 36.18504 140.42021 115 ft 29 kts 196°
2026-04-21 05:54 36.18294 140.41936 115 ft 32 kts 199°
2026-04-21 05:54 36.18105 140.41855 115 ft 0 kts 200°
2026-04-21 05:55 36.18070 140.41838 115 ft 7 kts 203°
2026-04-21 05:55 36.18053 140.41780 115 ft 9 kts 284°
2026-04-21 05:55 36.18080 140.41692 115 ft 13 kts 292°
2026-04-21 05:55 36.18117 140.41586 115 ft 11 kts 291°
2026-04-21 05:56 36.18144 140.41469 115 ft 16 kts 286°
2026-04-21 05:56 36.18137 140.41332 115 ft 16 kts 228°
2026-04-21 05:56 36.18020 140.41263 115 ft 20 kts 200°
2026-04-21 05:56 36.17868 140.41199 115 ft 25 kts 198°
2026-04-21 05:57 36.17731 140.41115 115 ft 20 kts 228°
2026-04-21 05:57 36.17746 140.40988 115 ft 13 kts 294°
2026-04-21 05:57 36.17762 140.40939 115 ft 0 kts 288°
2026-04-21 05:57 36.17764 140.40927 115 ft 2 kts 268°
2026-04-21 05:58 36.17754 140.40910 115 ft 3 kts 214°
2026-04-21 05:58 36.17720 140.40889 115 ft 6 kts 205°
2026-04-21 05:58 36.17684 140.40855 115 ft 6 kts 249°
2026-04-21 05:58 36.17685 140.40834 115 ft 0 kts 287°